Lid_Strength_Index
-1 -1 -1 -1 -1 -1 -0 -1 -0 0 -1 -1 -1 -1 -1 -1 -1 1 3 2 1 -1 0 5 6 6 6 7 7 9 12 14 12 12 11 9 10 9 9 8 9 7 7 6 4
-1 -1 -1 -1 -0 -1 -0 -1 -1 -1 -1 -1 -1 -1 -1 -1 1 3 1 -2 -1 -0 5 7 8 7 9 8 8 10 13 12 11 11 11 9 10 9 10 10 10 9 8 4 3
-1 -1 -1 0 -0 -0 -0 0 -1 -1 -1 -1 -1 -1 -1 -0 4 4 -1 -1 -1 0 4 5 7 7 9 9 10 10 12 11 10 9 9 9 10 9 10 12 10 9 8 4 5
-1 -1 -0 0 1 0 -0 -0 -0 -0 -1 -1 -1 -1 -1 1 10 4 -1 -1 -1 4 5 6 8 10 11 11 9 12 10 10 8 8 9 10 9 10 10 10 8 8 7 5 5
-1 -1 -0 -0 0 -0 -0 0 -0 -1 -1 -1 -1 -1 1 6 5 3 0 1 4 5 6 7 9 10 12 11 10 12 11 9 8 9 10 9 10 10 10 9 9 7 6 4 4
-1 -1 -0 -0 -0 0 0 1 1 -1 -1 -1 -1 -1 4 8 2 3 4 4 4 5 7 7 9 8 10 10 11 10 10 10 9 9 9 10 11 11 9 9 9 8 8 6 5
-1 -0 -0 -0 0 -0 0 1 1 1 -1 -1 -1 1 6 7 3 4 4 4 4 5 7 6 7 8 9 10 9 10 12 11 10 10 10 10 12 11 10 9 9 9 10 8 6
0 -0 -0 -0 -0 -0 0 1 1 1 0 -1 -1 3 8 3 3 4 4 5 5 5 5 6 6 7 8 9 10 12 12 15 11 10 10 11 15 11 10 10 9 10 10 10 9
-0 -1 -0 -0 -0 -0 -0 0 0 -1 -0 -0 4 7 9 2 4 4 5 5 5 5 6 5 6 9 9 12 13 13 16 15 13 10 10 12 14 10 9 10 11 11 10 10 10
0 -0 -0 -0 -0 -0 -0 -1 -1 0 -0 1 4 10 8 7 4 4 5 5 6 7 7 8 9 11 12 14 16 16 16 14 15 11 11 13 13 11 9 10 10 10 10 10 10
1 1 -0 -0 -0 -0 1 2 5 6 5 8 8 9 6 5 4 5 5 6 6 8 11 10 13 14 13 12 12 13 14 15 14 11 12 13 13 11 10 11 12 11 10 10 9
2 1 0 0 -0 0 2 5 5 5 8 5 5 7 5 5 7 6 5 8 9 11 10 12 14 11 10 10 12 13 15 15 13 12 13 13 13 12 11 10 10 10 11 11 10
3 2 2 0 0 2 3 4 1 3 8 7 5 5 6 6 8 7 6 8 10 11 11 13 12 10 10 12 12 13 15 15 14 13 14 15 16 14 12 11 10 10 10 10 10
4 4 3 2 2 3 4 2 2 3 12 10 8 6 6 6 8 6 6 8 10 11 11 12 10 11 12 12 12 14 12 12 13 15 18 14 20 15 12 12 12 10 11 10 10
4 4 4 2 3 4 3 2 2 4 19 9 8 4 6 7 8 8 7 8 11 11 12 13 12 12 13 12 11 13 11 12 13 15 16 17 18 16 14 14 12 12 11 10 10
5 4 4 2 2 2 2 2 3 13 20 11 8 9 9 9 9 8 8 8 8 10 11 12 10 11 11 11 11 10 11 12 13 15 20 16 17 18 16 14 13 12 11 10 10
5 5 5 3 4 1 1 4 14 17 10 12 12 10 10 10 10 10 11 11 12 14 14 12 12 11 10 12 11 12 14 18 19 20 20 16 18 16 13 12 12 12 12 11 10
5 4 3 4 3 2 3 9 17 13 12 10 10 10 12 10 11 10 11 13 11 12 14 14 15 12 10 11 12 12 14 18 21 20 19 17 19 15 12 11 11 11 11 11 11
3 7 5 4 3 2 7 15 14 13 10 11 11 13 13 12 12 12 13 13 11 11 13 14 14 11 11 10 10 13 14 12 16 22 20 18 16 13 11 11 10 11 10 10 9
7 8 7 3 3 4 9 13 12 8 8 9 13 11 14 13 13 13 14 12 12 10 10 12 15 13 12 11 12 12 11 16 16 22 22 19 18 16 14 12 10 10 10 10 9
7 11 7 5 3 7 13 12 10 8 8 10 12 12 12 13 12 13 13 12 11 12 9 11 14 16 14 14 14 14 15 15 14 17 20 22 18 14 13 11 12 11 10 10 9
8 13 6 4 9 8 12 10 9 9 8 9 9 10 11 11 12 12 12 12 10 11 13 11 13 18 15 13 13 13 14 14 17 19 18 18 17 12 12 12 11 11 10 10 10
10 10 5 3 12 12 10 9 8 10 9 9 10 10 10 11 13 11 11 9 10 10 11 11 15 21 17 14 13 15 13 13 14 16 18 20 17 12 11 11 10 11 10 10 10
9 13 9 7 8 11 11 11 10 7 9 10 10 10 11 12 11 12 11 10 10 10 9 9 13 16 18 15 13 15 13 12 13 18 16 16 14 12 11 10 9 10 10 10 9
7 11 9 14 12 9 10 10 11 11 8 9 11 10 10 13 12 13 11 11 10 9 10 10 14 13 13 12 12 13 13 13 14 13 16 14 14 11 10 9 9 9 8 8 8
8 11 9 11 10 10 10 11 10 9 9 10 10 9 9 11 11 12 11 11 11 10 10 10 14 12 14 12 12 13 13 12 12 12 12 12 13 9 8 8 8 8 8 8 8
7 5 7 10 11 12 12 11 10 9 8 7 8 9 10 9 8 8 8 8 9 10 11 11 13 14 21 14 14 18 14 13 12 11 11 14 11 9 9 8 8 8 9 9 9